User: anonymous   Login
Location: Camp at the Woods
(43.2055°N, 93.0905°W)
Time: 13:43:20
(UTC+00:00)
Language:

CZ-4B R/B - Orbit

View from above orbital plane
View from above orbital plane
View from above satellite
View from above satellite

Ground track
Ground track

The orbit data is extracted from the following two-line orbital elements,

1 32959U 08026B   24103.95289722  .00000273  00000-0  94832-4 0  9990
2 32959  98.9569 129.0499 0070626 114.3621 308.2911 14.42346767835418
Epoch (UTC): 12 April 2024 22:52:10
Eccentricity: 0.0070626
inclination: 98.9569°
perigee height: 700 km
apogee height: 801 km
right ascension of ascending node: 129.0499°
argument of perigee: 114.3621°
revolutions per day: 14.42346767
mean anomaly at epoch: 308.2911°
orbit number at epoch: 83541

The dashed part of the orbit path shows where the satellite is in the earth's shadow,  

DLR